Location: Góry Miechowskie
(50.3599°N, 20.1803°E)
Time: 14:39:44
(UTC+00:00)

Vanguard 1 Rocket - Pass Details

Date: 18 September 2024
Orbit: 650 x 4218 km, 34.3° (Epoch: 07 October)

Event Time Altitude Azimuth Distance (km) Brightness Sun altitude
Rises 04:33:00 0° 258° (WSW) 6,177 11.0 1.2°
Reaches altitude 10° 04:36:36 10° 253° (WSW) 5,560 10.8 1.8°
Maximum altitude 04:54:13 49° 185° (S) 4,515 11.0 4.6°
Drops below altitude 10° 05:18:16 10° 121° (ESE) 7,334 13.5 8.4°
Sets 05:24:00 0° 117° (ESE) 8,183 13.9 9.3°
